Terug naar catalogus

FENGYUN 1C DEB

ActiefSSO
NORAD 30530·DEBRIS·🇨🇳 China

Gelanceerd May 10, 1999 vanaf Taiyuan Satellite Launch Center

Loading…

Volgende Passages (komende 24 uur)

TLE

VersSource: Space-Track

Epoch: Sep 14, 2026, 21:43 UTC

1 30530U 99025AJU 26257.90543175  .00000412  00000-0  14496-3 0  9996
2 30530  98.3647 294.0786 0099426  31.9291  91.4174 14.37147046 27520

Volg FENGYUN 1C DEB in realtime met AllMySat

Download on the App Store